This is the latest recevied weather packets stored in our database for station/object F4GQK-13. If no packets are shown the sender has not sent any weather packets the latest 10 day(s).
| Time | Temp. | Humidity | Pressure | Rain* | Wind** | Luminosity | Snow |
|---|---|---|---|---|---|---|---|
| 1777557006 | 23.89° C | 36% | 1019.7 hPa | 0 mm | - | 686 W/m² | - |
| 1777556705 | 23.33° C | 37% | 1019.6 hPa | 0 mm | - | 693 W/m² | - |
| 1777556404 | 23.33° C | 37% | 1019.7 hPa | 0 mm | - | 700 W/m² | - |
| 1777556106 | 22.78° C | 36% | 1019.7 hPa | 0 mm | - | 708 W/m² | - |
| 1777555805 | 23.33° C | 36% | 1019.7 hPa | 0 mm | - | 713 W/m² | - |
| 1777555505 | 22.78° C | 36% | 1019.5 hPa | 0 mm | - | 719 W/m² | - |
| 1777555205 | 22.78° C | 38% | 1019.5 hPa | 0 mm | - | 725 W/m² | - |
| 1777554905 | 22.78° C | 38% | 1019.8 hPa | 0 mm | - | 730 W/m² | - |
| 1777554605 | 22.22° C | 36% | 1019.8 hPa | 0 mm | - | 735 W/m² | - |
| 1777554305 | 22.78° C | 36% | 1019.8 hPa | 0 mm | - | 740 W/m² | - |
| 1777554005 | 22.78° C | 37% | 1019.6 hPa | 0 mm | - | 745 W/m² | - |
| 1777553705 | 22.78° C | 36% | 1019.8 hPa | 0 mm | - | 749 W/m² | - |
| 1777553405 | 22.78° C | 37% | 1019.8 hPa | 0 mm | - | 752 W/m² | - |
| 1777553105 | 22.78° C | 36% | 1019.8 hPa | 0 mm | - | 755 W/m² | - |
| 1777552805 | 22.78° C | 36% | 1020 hPa | 0 mm | - | 757 W/m² | - |
| 1777552505 | 22.22° C | 36% | 1020 hPa | 0 mm | - | 760 W/m² | - |
| 1777552205 | 22.22° C | 37% | 1020.1 hPa | 0 mm | - | 762 W/m² | - |
| 1777551905 | 22.22° C | 36% | 1020.2 hPa | 0 mm | - | 764 W/m² | - |
| 1777551604 | 22.22° C | 38% | 1020 hPa | 0 mm | - | 765 W/m² | - |
| 1777551305 | 22.22° C | 39% | 1020.2 hPa | 0 mm | - | 764 W/m² | - |
| 1777551005 | 21.67° C | 38% | 1020.1 hPa | 0 mm | - | 767 W/m² | - |
| 1777550705 | 21.67° C | 38% | 1020.2 hPa | 0 mm | - | 767 W/m² | - |
| 1777550405 | 21.67° C | 39% | 1020.2 hPa | 0 mm | - | 767 W/m² | - |
| 1777550106 | 21.67° C | 38% | 1020.2 hPa | 0 mm | - | 768 W/m² | - |
| 1777549805 | 21.11° C | 38% | 1020.3 hPa | 0 mm | - | 766 W/m² | - |
* Rain latest hour (hover to see other rain measurements)
** Current wind speed in m/s (hover to see current wind gust speed)